This demonstration page uses our WeatherBlox Daily Observations layout. Learn more.

Left ArrowRight Arrow

Hourly Observations for January 7, 2019

Temp ( °F °C ) Dew Point ( °F °C ) Humidity (%) Winds ( mph kmh ) Pressure ( in mb ) Visibility ( mi km ) Precip ( " mm )
12:51 am 00:51 Cloudy 40 4.4 39 3.9 97 97 NNE 6 9 30.20 1023 10 16 N/A
1:51 am 01:51 Cloudy 39 3.9 38 3.3 96 96 NE 3 6 30.21 1023 10 16 N/A
2:51 am 02:51 Clear 37 2.8 36 2.2 96 96 NNW 3 6 30.22 1023 10 16 N/A
3:51 am 03:51 Clear 35 1.7 34 1.1 96 96 N 3 6 30.22 1023 10 16 N/A
4:51 am 04:51 Clear 33 0.6 33 0.6 100 100 ENE 5 7 30.24 1024 10 16 N/A
5:51 am 05:51 Clear 32 undefined 32 undefined 100 100 ESE 5 7 30.24 1024 10 16 N/A
6:51 am 06:51 Clear 32 undefined 32 undefined 100 100 SE 3 6 30.26 1025 10 16 N/A
7:51 am 07:51 Sunny 33 0.6 32 undefined 96 96 ESE 3 6 30.29 1026 10 16 N/A
8:51 am 08:51 Sunny 38 3.3 35 1.7 89 89 N N/A 30.30 1026 10 16 N/A
9:51 am 09:51 Sunny 43 6.1 37 2.8 80 80 SE 6 9 30.31 1026 10 16 N/A
10:51 am 10:51 Sunny 47 8.3 36 2.2 66 66 S 7 11 30.28 1025 10 16 N/A
11:51 am 11:51 Sunny 49 9.4 37 2.8 64 64 N N/A 30.24 1024 10 16 N/A
12:51 pm 12:51 Sunny 53 11.7 37 2.8 55 55 VRB 3 6 30.20 1023 10 16 N/A
1:51 pm 13:51 Sunny 56 13.3 38 3.3 51 51 VRB 3 6 30.17 1022 10 16 N/A
2:51 pm 14:51 Sunny 55 12.8 33 0.6 44 44 WSW 3 6 30.17 1022 10 16 N/A
3:51 pm 15:51 Sunny 56 13.3 32 undefined 40 40 N N/A 30.16 1022 10 16 N/A
4:51 pm 16:51 Sunny 55 12.8 32 undefined 42 42 VRB 3 6 30.16 1021 10 16 N/A
5:51 pm 17:51 Clear 51 10.6 32 undefined 48 48 N N/A 30.17 1022 10 16 N/A
6:51 pm 18:51 Clear 44 6.7 38 3.3 79 79 NNE 3 6 30.20 1023 10 16 N/A
7:51 pm 19:51 Clear 43 6.1 37 2.8 80 80 NE 7 11 30.22 1023 10 16 N/A
8:51 pm 20:51 Clear 42 5.6 36 2.2 79 79 S 5 7 30.22 1023 10 16 N/A
9:51 pm 21:51 Clear 37 2.8 36 2.2 96 96 NE 3 6 30.25 1024 10 16 N/A
10:51 pm 22:51 Clear 40 4.4 36 2.2 86 86 N N/A 30.23 1024 10 16 N/A
11:51 pm 23:51 Clear 37 2.8 35 1.7 93 93 N N/A 30.23 1024 10 16 N/A

Powered by AerisWeather